EB5EEV-10 Weather Reports


time (UTC)temp
C
wind
direction
speed
KPH
gust
KPH
rain 1hr
cm
rain 24hr
cm
rain mn
cm
humidity
%
barometer
mb
20260508070120 14 171 1.6 1.6 0.03 0.00 0.03 8 1009.7
20260508064337 13 0 0.0 0.0 0.00 0.00 0.00 8 1009.6
20260508062556 13 111 4.8 4.8 0.00 0.00 0.00 8 1009.1
20260508060852 13 130 1.6 4.8 0.00 0.00 0.00 8 1009.2
20260508055117 -17 0 0.0 0.0 0.00 0.00 0.00 100 1009.4
20260508053330 -17 0 0.0 0.0 0.00 0.00 0.00 100 1009.0
20260508051451 -17 0 0.0 0.0 0.00 0.00 0.00 100 1008.6
20260507181528 18 185 1.6 6.4 0.00 0.00 0.00 8 1007.9
20260507175641 18 0 0.0 4.8 0.00 0.00 0.00 8 1008.0
20260507173807 18 124 4.8 9.7 0.00 0.00 0.00 7 1007.8
20260507172102 18 106 1.6 9.7 0.00 0.00 0.00 7 1007.7
20260507170237 18 177 1.6 3.2 0.00 0.00 0.00 7 1007.7
20260507164430 18 233 6.4 6.4 0.00 0.00 0.00 7 1007.6
20260507162602 18 158 8.0 9.7 0.00 0.00 0.00 7 1007.7
20260507160809 18 140 3.2 4.8 0.00 0.00 0.00 7 1007.6
20260507155041 18 158 6.4 9.7 0.00 0.00 0.00 7 1007.4
20260507153232 18 0 0.0 6.4 0.00 0.00 0.00 7 1007.1
20260507151451 18 186 8.0 8.0 0.00 0.00 0.00 7 1007.2
20260507145801 19 219 9.7 11.3 0.00 0.00 0.00 7 1007.4
20260507144138 19 171 3.2 14.5 0.00 0.00 0.00 7 1007.5
20260507142437 20 197 3.2 14.5 0.00 0.00 0.00 7 1007.4
20260507140641 20 213 4.8 14.5 0.00 0.00 0.00 6 1007.5
20260507134902 20 250 8.0 17.7 0.00 0.00 0.00 6 1007.5
20260507133015 20 129 14.5 16.1 0.00 0.00 0.00 7 1008.0
20260507131228 20 231 9.7 11.3 0.00 0.00 0.00 7 1008.1
20260507125419 20 233 3.2 3.2 0.00 0.00 0.00 7 1008.0
20260507123542 20 333 8.0 8.0 0.00 0.00 0.00 7 1008.2
20260507121802 20 236 1.6 3.2 0.00 0.00 0.00 7 1008.2
20260507120114 20 221 9.7 9.7 0.00 0.00 0.00 7 1008.5
20260507114341 20 0 0.0 4.8 0.00 0.00 0.00 7 1008.9
20260507105933 20 225 1.6 4.8 0.00 0.00 0.00 7 1009.0
20260507104024 19 111 4.8 9.7 0.00 0.00 0.00 7 1009.0
20260507102107 19 0 0.0 8.0 0.00 0.00 0.00 7 1009.1
20260507100232 19 170 6.4 11.3 0.00 0.00 0.00 7 1009.3
20260507094352 18 135 1.6 4.8 0.00 0.00 0.00 7 1009.3
20260507085130 18 162 1.6 4.8 0.00 0.00 0.00 7 1009.4
20260507083257 -17 0 0.0 0.0 0.00 0.00 0.00 100 1009.2
20260507081557 -17 0 0.0 0.0 0.00 0.00 0.00 100 1009.1
20260507075815 -17 0 0.0 0.0 0.00 0.00 0.00 100 1009.1